Regional Weather Roundup
Issued by NWS San Diego, CA

Home | Current Version | Previous Version | Text Only | Print | Product List | Glossary On
Versions: 1 2 3 4 5 6 7 8 9 10 11 12 13 14 15 16 17 18 19 20 21 22 23 24 25 26 27 28
000
ASUS46 KSGX 170511
RWRSGX

SAN DIEGO HOURLY WEATHER ROUNDUP
NATIONAL WEATHER SERVICE SAN DIEGO CA
900 PM PST SAT DEC 16 2017

NOTE: "FAIR" INDICATES FEW OR NO CLOUDS BELOW 12,000 FEET WITH NO
SIGNIFICANT WEATHER AND/OR OBSTRUCTIONS TO VISIBILITY.

CAZ042-043-060-061-PZZ750-775-170600-

GREATER SAN DIEGO AREA

CITY           SKY/WX    TMP DP  RH WIND       PRES   REMARKS
SAN DIEGO AP   PTCLDY    58  52  80 N5        29.76R
NATIONAL CITY    N/A     58  52  81 CALM      29.77R
CHULA VISTA      N/A     57  52  85 CALM      29.67R
IMPERIAL BEACH PTCLDY    53  48  83 CALM      29.76R
BROWN FIELD    MOCLDY    57  52  83 CALM      29.75R
MIRAMAR MCAS   PTCLDY    56  51  84 NW5       29.74S
MONTGOMERY FLD CLEAR     58  51  78 CALM      29.76R
GILLESPIE FLD    N/A     54  50  87 E5        29.75R

$$

NORTH SAN DIEGO COUNTY

CITY           SKY/WX    TMP DP  RH WIND       PRES   REMARKS
CAMP PENDLETON CLEAR     47  42  83 E3        29.76R
OCEANSIDE AP   NOT AVBL
OCEANSIDE HBR    N/A     54  47  76 CALM      29.78R
VISTA            N/A     51  46  83 CALM      29.73R
CARLSBAD       CLEAR     55  50  83 CALM      29.75R
DEL MAR          N/A     55  52  90 CALM      29.77R
LA JOLLA SCRIP   N/A     58  53  84 NW3       29.75R
FALLBROOK        N/A     54  52  92 CALM      29.77R
ESCONDIDO        N/A     55  48  77 CALM      29.76R
SAN MARCOS       N/A     53  47  79 CALM      29.78R
POWAY            N/A     50  45  82 CALM      29.77S

$$

EAST SAN DIEGO COUNTY

CITY           SKY/WX    TMP DP  RH WIND       PRES   REMARKS
RAMONA         CLEAR     41  38  89 SE3       29.75S
SANTEE LAKES     N/A     52  47  83 CALM      29.74R
LA MESA          N/A     55  51  86 CALM      29.69R
JAMUL            N/A     53  49  85 CALM      29.76R
MT. LAGUNA OBS   N/A     38  25  59 NE6       29.73R WCI  34
CAMPO            N/A     53  25  33 NE8       29.72S

$$

ORANGE COUNTY AND THE LOS ANGELES BASIN

CITY           SKY/WX    TMP DP  RH WIND       PRES   REMARKS
JOHN WAYNE AP  CLEAR     58  51  78 N3        29.77R
LAGUNA BEACH     N/A     51  46  82 CALM      29.71R
LAKE FOREST FR   N/A     54  44  70 E3        29.65R
HUNTINGTON BCH   N/A     52  50  93 CALM      29.78R
LOS ALAMITOS   FAIR      56  49  79 N3        29.76R
FULLERTON      CLEAR     54  49  83 CALM      29.76R
LONG BEACH     CLEAR     56  51  84 CALM      29.77R
L.A. AP        CLEAR     59  51  75 CALM      29.78R
L.A. DOWNTOWN  CLEAR     55  49  80 CALM      29.77R

$$

THE INLAND EMPIRE

CITY           SKY/WX    TMP DP  RH WIND       PRES   REMARKS
CORONA         CLEAR     52  45  77 CALM      29.79R
CHINO          CLEAR     52  45  77 NE3       29.79R HAZE
ONTARIO        PTCLDY    55  47  74 W7        29.78R
SAN BERNARDINO CLEAR     54  41  62 CALM      29.78
RIVERSIDE AP   CLEAR     50  46  86 S5        29.78R
MORENO VALLEY    N/A     51  46  82 CALM      27.90R
MARCH ARB      CLEAR     48  48 100 W9        29.77R
HORSETHIEF CYN   N/A     51  39  62 NW5       29.78R
PERRIS           N/A     52  49  90 E2        29.71R
HEMET EAST       N/A     58  -1   9 CALM      30.17S
FRENCH VALLEY  FAIR      45  39  81 CALM      29.78R
TEMECULA         N/A     50  45  82 CALM      29.81R

$$

SAN BERNARDINO AND RIVERSIDE COUNTY MOUNTAINS

CITY           SKY/WX    TMP DP  RH WIND       PRES   REMARKS
BIG BEAR AP    CLEAR     32  19  59 CALM      29.87R

$$

SOUTHERN DESERT INCLUDING THE COACHELLA VALLEY

CITY           SKY/WX    TMP DP  RH WIND       PRES   REMARKS
PALM SPRINGS   CLEAR     62  22  21 N7        29.78R
THOUSAND PALMS   N/A     56  29  36 NE2       29.73R
PALM DESERT      N/A     54  39  55 CALM        N/A
THERMAL        PTCLDY    54  36  50 CALM      29.73R
BLYTHE         CLEAR     50  13  22 CALM      29.75R
IMPERIAL AP    MOCLDY    50  32  50 W7        29.73R
EL CENTRO NAS  MOCLDY    53  29  39 W5        29.76R
YUMA AZ        CLEAR     56  24  29 NE8       29.71R
MEXICALI       PTCLDY    50  32  50 W8        29.72R

$$

UPPER DESERT

CITY           SKY/WX    TMP DP  RH WIND       PRES   REMARKS
HESPERIA         N/A     46  26  46 N3        29.96R
APPLE VALLEY     N/A     47  25  42 S5        29.88R
PALMDALE       MOCLDY    49  21  33 NE16      29.89R
LANCASTER      PTCLDY    40  23  50 SW3       29.89R
EDWARDS AFB    PTCLDY    49  16  26 N16       29.86R
DAGGETT        PTCLDY    53  24  32 CALM      29.86R
29 PALMS N     MOCLDY    55  26  32 N10G21    29.88R
NEEDLES        CLOUDY    59  14  17 NW8       29.80R

$$

REGIONAL REPORTS

CITY           SKY/WX    TMP DP  RH WIND       PRES   REMARKS
SANTA BARBARA  CLEAR     58  26  29 CALM      29.78R
SANDBERG       CLEAR     39  25  57 N21       29.89R WCI  29
LAS VEGAS NV   MOCLDY    55  28  35 N16G30    29.86R
PHOENIX AZ     CLOUDY    56  22  26 E5        29.75R
TIJUANA        MOCLDY    57  52  82 NW7       29.96R
ENSENADA NW      N/A     58  32  36 CALM      29.67R

$$

OFFSHORE ISLANDS

CITY           SKY/WX    TMP DP  RH WIND       PRES   REMARKS
CATALINA ARPT  CLEAR     56  41  57 NE5       29.79R
SAN NICOLAS IS CLEAR     54  32  43 W6        29.79R

$$

MARINE AND OFFSHORE BUOY REPORTS

STATION/POSITION SKY/WX   TEMP    WIND        PRES    VSBY  SWELL
                          AIR SEA DIR/SP/G                  HT/PER/DIR
                          (F)     (DEG/KT/KT) (MB)    (MI)  (FT/S/D)
TANNER BANKS               61 62  280/ 10/ 14 1007.5R        15/330/13
S CLEMENTE BASIN           62 63  360/  8/ 10 1007.4R        10/290/11
SAN NICOLAS IS.               61                N/A          11/310/13
SO. S. ROSA ISLA           59 58  320/ 17/ 23 1008.3R        15/300/12
W. S. BARBARA CH           61 58  350/ 16/ 19 1008.6R        13/300/13
M. S. BARBARA CH           60 61   80/  8/ 10 1009.5R         7/270/11
S. MONICA BASIN               62  320/  6/  8 1008.2R         5/270/12
S PEDRO CHANNEL               62                N/A           3/280/12
CMP PENDLETON NS              62                N/A           3/250/13
OCEANSIDE OFFSHR              62                N/A           3/270/11
TORREY PINES OTR              62                N/A           3/280/11
SAN DIEGO BAY                 64              1007.9R
POINT LOMA SOUTH              64                N/A           7/280/11

$$





USA.gov is the U.S. government's official web portal to all federal, state and local government web resources and services.